Time,TemperatureF,DewpointF,PressureIn,WindDirection,WindDirectionDegrees,WindSpeedMPH,WindSpeedGustMPH,Humidity,HourlyPrecipIn,Conditions,Clouds,dailyrainin,SoftwareType,DateUTC
2013-10-22 00:13:00,34.0,26.0,29.82,WNW,286,7.0,14.0,72,0.00,,,0.00,,2013-10-22 05:13:00,
2013-10-22 00:22:00,34.0,26.0,29.82,NW,312,7.0,13.0,72,0.00,,,0.00,,2013-10-22 05:22:00,
2013-10-22 00:52:00,34.0,26.0,29.82,West,277,6.0,11.0,73,0.00,,,0.00,,2013-10-22 05:52:00,
2013-10-22 01:12:00,34.0,27.0,29.82,WSW,251,7.0,12.0,74,0.00,,,0.00,,2013-10-22 06:12:00,
2013-10-22 01:22:00,34.0,27.0,29.82,West,271,5.0,11.0,75,0.00,,,0.00,,2013-10-22 06:22:00,
2013-10-22 01:42:00,33.0,26.0,29.83,West,266,6.0,11.0,76,0.00,,,0.00,,2013-10-22 06:42:00,
2013-10-22 01:53:00,32.0,26.0,29.83,West,275,7.0,13.0,77,0.00,,,0.00,,2013-10-22 06:53:00,
2013-10-22 02:12:00,32.0,26.0,29.83,West,259,4.0,10.0,78,0.00,,,0.00,,2013-10-22 07:12:00,
2013-10-22 02:22:00,32.0,26.0,29.84,WSW,258,5.0,11.0,79,0.00,,,0.00,,2013-10-22 07:22:00,
2013-10-22 02:42:00,32.0,26.0,29.84,West,270,6.0,13.0,79,0.00,,,0.00,,2013-10-22 07:42:00,
2013-10-22 02:52:00,32.0,27.0,29.84,West,281,5.0,9.0,80,0.00,,,0.00,,2013-10-22 07:52:00,
2013-10-22 03:12:00,32.0,27.0,29.84,WNW,283,4.0,10.0,81,0.00,,,0.00,,2013-10-22 08:12:00,
2013-10-22 03:22:00,31.0,26.0,29.84,West,279,5.0,11.0,82,0.00,,,0.00,,2013-10-22 08:22:00,
2013-10-22 03:42:00,31.0,26.0,29.84,West,270,4.0,12.0,83,0.00,,,0.00,,2013-10-22 08:42:00,
2013-10-22 03:52:00,31.0,27.0,29.84,WSW,253,5.0,11.0,84,0.00,,,0.00,,2013-10-22 08:52:00,
2013-10-22 04:11:00,31.0,26.0,29.85,WSW,251,7.0,12.0,83,0.00,,,0.00,,2013-10-22 09:11:00,
2013-10-22 04:22:00,31.0,26.0,29.85,WSW,246,4.0,14.0,83,0.00,,,0.00,,2013-10-22 09:22:00,
2013-10-22 04:43:00,31.0,27.0,29.85,WNW,292,6.0,11.0,84,0.00,,,0.00,,2013-10-22 09:43:00,
2013-10-22 04:54:00,31.0,27.0,29.85,WNW,287,4.0,13.0,85,0.00,,,0.00,,2013-10-22 09:54:00,
2013-10-22 05:13:00,31.0,27.0,29.85,SW,235,4.0,9.0,86,0.00,,,0.00,,2013-10-22 10:13:00,
2013-10-22 05:23:00,31.0,27.0,29.85,WSW,257,5.0,10.0,86,0.00,,,0.00,,2013-10-22 10:23:00,
2013-10-22 05:43:00,31.0,27.0,29.85,WSW,250,4.0,9.0,86,0.00,,,0.00,,2013-10-22 10:43:00,
2013-10-22 05:53:00,30.0,27.0,29.86,West,269,4.0,11.0,87,0.00,,,0.00,,2013-10-22 10:53:00,
2013-10-22 06:12:00,30.0,27.0,29.86,West,279,3.0,8.0,87,0.00,,,0.00,,2013-10-22 11:12:00,
2013-10-22 06:22:00,30.0,27.0,29.86,WNW,302,4.0,9.0,88,0.00,,,0.00,,2013-10-22 11:22:00,
2013-10-22 06:42:00,30.0,27.0,29.86,NW,307,2.0,7.0,88,0.00,,,0.00,,2013-10-22 11:42:00,
2013-10-22 06:52:00,30.0,27.0,29.86,West,273,3.0,7.0,88,0.00,,,0.00,,2013-10-22 11:52:00,
2013-10-22 07:11:00,30.0,27.0,29.86,NW,316,1.0,5.0,89,0.00,,,0.00,,2013-10-22 12:11:00,
2013-10-22 07:22:00,30.0,27.0,29.86,WNW,288,1.0,4.0,89,0.00,,,0.00,,2013-10-22 12:22:00,
2013-10-22 07:42:00,30.0,27.0,29.86,West,273,3.0,7.0,89,0.00,,,0.00,,2013-10-22 12:42:00,
2013-10-22 07:52:00,30.0,27.0,29.86,WNW,290,2.0,5.0,89,0.00,,,0.00,,2013-10-22 12:52:00,
2013-10-22 08:12:00,30.0,27.0,29.86,NW,309,2.0,8.0,90,0.00,,,0.00,,2013-10-22 13:12:00,
2013-10-22 08:21:00,31.0,28.0,29.86,NW,305,5.0,8.0,89,0.00,,,0.00,,2013-10-22 13:21:00,
2013-10-22 08:42:00,31.0,28.0,29.87,NNW,343,4.0,8.0,89,0.00,,,0.00,,2013-10-22 13:42:00,
2013-10-22 08:53:00,32.0,29.0,29.87,NW,323,3.0,7.0,88,0.00,,,0.00,,2013-10-22 13:53:00,
2013-10-22 09:11:00,32.0,29.0,29.87,NW,307,2.0,8.0,87,0.00,,,0.00,,2013-10-22 14:11:00,
2013-10-22 09:21:00,33.0,30.0,29.87,NNW,333,4.0,7.0,87,0.00,,,0.00,,2013-10-22 14:21:00,
2013-10-22 09:42:00,34.0,30.0,29.88,NW,312,5.0,8.0,85,0.00,,,0.00,,2013-10-22 14:42:00,
2013-10-22 09:52:00,35.0,30.0,29.88,NW,322,5.0,8.0,83,0.00,,,0.00,,2013-10-22 14:52:00,
2013-10-22 10:12:00,36.0,31.0,29.88,NNW,331,5.0,11.0,82,0.00,,,0.00,,2013-10-22 15:12:00,
2013-10-22 10:22:00,36.0,30.0,29.88,NW,322,3.0,10.0,79,0.00,,,0.00,,2013-10-22 15:22:00,
2013-10-22 10:43:00,37.0,30.0,29.88,NNW,333,4.0,10.0,77,0.00,,,0.00,,2013-10-22 15:43:00,
2013-10-22 10:54:00,38.0,31.0,29.88,NW,308,4.0,10.0,75,0.00,,,0.00,,2013-10-22 15:54:00,
2013-10-22 11:13:00,39.0,31.0,29.88,North,355,3.0,9.0,74,0.00,,,0.00,,2013-10-22 16:13:00,
2013-10-22 11:23:00,39.0,31.0,29.88,North,349,3.0,8.0,72,0.00,,,0.00,,2013-10-22 16:23:00,
2013-10-22 11:43:00,40.0,31.0,29.89,West,269,4.0,9.0,70,0.00,,,0.00,,2013-10-22 16:43:00,
2013-10-22 11:53:00,40.0,31.0,29.88,NW,325,4.0,8.0,70,0.00,,,0.00,,2013-10-22 16:53:00,
2013-10-22 12:12:00,41.0,32.0,29.88,NW,314,3.0,9.0,69,0.00,,,0.00,,2013-10-22 17:12:00,
2013-10-22 12:22:00,41.0,31.0,29.88,NE,38,2.0,13.0,68,0.00,,,0.00,,2013-10-22 17:22:00,
2013-10-22 12:43:00,41.0,32.0,29.88,WNW,282,4.0,7.0,69,0.00,,,0.00,,2013-10-22 17:43:00,
2013-10-22 12:52:00,41.0,30.0,29.88,WNW,290,3.0,9.0,65,0.00,,,0.00,,2013-10-22 17:52:00,
2013-10-22 13:12:00,42.0,31.0,29.88,North,355,3.0,9.0,64,0.00,,,0.00,,2013-10-22 18:12:00,
2013-10-22 13:22:00,42.0,31.0,29.87,NNW,338,3.0,7.0,64,0.00,,,0.00,,2013-10-22 18:22:00,
2013-10-22 13:42:00,41.0,30.0,29.87,NE,35,3.0,9.0,64,0.00,,,0.00,,2013-10-22 18:42:00,
2013-10-22 13:52:00,43.0,29.0,29.86,NW,314,4.0,9.0,58,0.00,,,0.00,,2013-10-22 18:52:00,
2013-10-22 14:12:00,43.0,29.0,29.86,West,275,5.0,12.0,58,0.00,,,0.00,,2013-10-22 19:12:00,
2013-10-22 14:22:00,42.0,29.0,29.86,WNW,293,7.0,12.0,59,0.00,,,0.00,,2013-10-22 19:22:00,
2013-10-22 14:42:00,42.0,28.0,29.86,NNW,344,2.0,9.0,57,0.00,,,0.00,,2013-10-22 19:42:00,
2013-10-22 14:53:00,42.0,29.0,29.86,WNW,287,3.0,9.0,59,0.00,,,0.00,,2013-10-22 19:53:00,
2013-10-22 15:11:00,44.0,28.0,29.86,NNE,13,6.0,12.0,54,0.00,,,0.00,,2013-10-22 20:11:00,
2013-10-22 15:22:00,44.0,28.0,29.86,WNW,303,7.0,15.0,54,0.00,,,0.00,,2013-10-22 20:22:00,
2013-10-22 15:43:00,44.0,29.0,29.86,North,5,6.0,13.0,55,0.00,,,0.00,,2013-10-22 20:43:00,
2013-10-22 15:52:00,42.0,27.0,29.86,NNW,348,4.0,9.0,56,0.00,,,0.00,,2013-10-22 20:52:00,
2013-10-22 16:12:00,43.0,29.0,29.87,WNW,300,5.0,14.0,57,0.00,,,0.00,,2013-10-22 21:12:00,
2013-10-22 16:23:00,42.0,28.0,29.87,WNW,301,3.0,9.0,57,0.00,,,0.00,,2013-10-22 21:23:00,
2013-10-22 16:44:00,41.0,29.0,29.88,NNW,337,4.0,7.0,61,0.00,,,0.00,,2013-10-22 21:44:00,
2013-10-22 16:54:00,42.0,28.0,29.88,WNW,286,7.0,11.0,58,0.00,,,0.00,,2013-10-22 21:54:00,
2013-10-22 17:14:00,41.0,28.0,29.88,West,279,6.0,11.0,59,0.00,,,0.00,,2013-10-22 22:14:00,
2013-10-22 17:24:00,41.0,29.0,29.88,NNW,342,2.0,9.0,62,0.00,,,0.00,,2013-10-22 22:24:00,
2013-10-22 17:44:00,41.0,29.0,29.89,NW,325,2.0,6.0,62,0.00,,,0.00,,2013-10-22 22:44:00,
2013-10-22 17:54:00,41.0,29.0,29.89,NW,313,4.0,6.0,63,0.00,,,0.00,,2013-10-22 22:54:00,
2013-10-22 18:12:00,40.0,28.0,29.89,NNW,335,5.0,9.0,63,0.00,,,0.00,,2013-10-22 23:12:00,
2013-10-22 18:23:00,40.0,29.0,29.89,NNW,329,4.0,9.0,64,0.00,,,0.00,,2013-10-22 23:23:00,
2013-10-22 18:43:00,40.0,29.0,29.89,NNW,333,3.0,7.0,64,0.00,,,0.00,,2013-10-22 23:43:00,
2013-10-22 18:53:00,40.0,29.0,29.89,NW,324,5.0,10.0,64,0.00,,,0.00,,2013-10-22 23:53:00,
2013-10-22 19:11:00,39.0,28.0,29.90,NW,326,4.0,8.0,65,0.00,,,0.00,,2013-10-23 00:11:00,
2013-10-22 19:22:00,39.0,29.0,29.90,NW,306,4.0,8.0,67,0.00,,,0.00,,2013-10-23 00:22:00,
2013-10-22 19:42:00,39.0,29.0,29.90,NNW,337,3.0,9.0,68,0.00,,,0.00,,2013-10-23 00:42:00,
2013-10-22 19:52:00,39.0,29.0,29.91,North,355,4.0,8.0,66,0.00,,,0.00,,2013-10-23 00:52:00,
2013-10-22 20:11:00,38.0,28.0,29.91,NW,315,3.0,9.0,67,0.00,,,0.00,,2013-10-23 01:11:00,
2013-10-22 20:23:00,38.0,29.0,29.91,North,355,2.0,8.0,70,0.00,,,0.00,,2013-10-23 01:23:00,
2013-10-22 20:42:00,37.0,28.0,29.91,NNW,329,3.0,11.0,70,0.00,,,0.00,,2013-10-23 01:42:00,
2013-10-22 20:52:00,37.0,28.0,29.92,NW,305,3.0,9.0,70,0.00,,,0.00,,2013-10-23 01:52:00,
2013-10-22 21:11:00,36.0,27.0,29.92,NNW,327,2.0,8.0,70,0.00,,,0.00,,2013-10-23 02:11:00,
2013-10-22 21:22:00,36.0,28.0,29.92,NNW,348,2.0,8.0,71,0.00,,,0.00,,2013-10-23 02:22:00,
2013-10-22 21:42:00,35.0,27.0,29.92,NNW,339,2.0,7.0,72,0.00,,,0.00,,2013-10-23 02:42:00,
2013-10-22 21:54:00,35.0,27.0,29.92,NW,319,3.0,6.0,73,0.00,,,0.00,,2013-10-23 02:54:00,
2013-10-22 22:12:00,34.0,27.0,29.92,NW,325,1.0,3.0,74,0.00,,,0.00,,2013-10-23 03:12:00,
2013-10-22 22:22:00,34.0,27.0,29.93,NW,309,2.0,6.0,74,0.00,,,0.00,,2013-10-23 03:22:00,
2013-10-22 22:44:00,34.0,27.0,29.93,NW,318,1.0,3.0,75,0.00,,,0.00,,2013-10-23 03:44:00,
2013-10-22 22:55:00,34.0,27.0,29.93,NNW,333,2.0,6.0,74,0.00,,,0.00,,2013-10-23 03:55:00,
2013-10-22 23:14:00,35.0,27.0,29.93,NW,326,3.0,6.0,73,0.00,,,0.00,,2013-10-23 04:14:00,
2013-10-22 23:24:00,35.0,27.0,29.93,NNW,333,2.0,4.0,73,0.00,,,0.00,,2013-10-23 04:24:00,
2013-10-22 23:45:00,35.0,27.0,29.93,WNW,298,1.0,5.0,73,0.00,,,0.00,,2013-10-23 04:45:00,
2013-10-22 23:55:00,35.0,26.0,29.92,NNW,343,3.0,6.0,70,0.00,,,0.00,,2013-10-23 04:55:00,